Carlyle Lake Weather Center

Moon Phase Calendar



Carlyle Lake Water Level
Online Cameras

 


      

Current Conditions in Carlyle
5/18/2022 12:34:29 AM

69°F
Feels Like 69
Clouds
Humidity
72%
Pressure
29.88"
Wind
8.8 mph (SSE)
Dew Point
60°F
UV Index
0/10 (Low)
Visibility
6 mi

Hourly Forecast

Date & Time Wed, May 18
12:00 AM
Wed, May 18
1:00 AM
Wed, May 18
2:00 AM
Wed, May 18
3:00 AM
Wed, May 18
4:00 AM
Wed, May 18
5:00 AM
Wed, May 18
6:00 AM
Wed, May 18
7:00 AM
Wed, May 18
8:00 AM
Wed, May 18
9:00 AM
Wed, May 18
10:00 AM
Wed, May 18
11:00 AM
Wed, May 18
12:00 PM
Wed, May 18
1:00 PM
Wed, May 18
2:00 PM
Wed, May 18
3:00 PM
Wed, May 18
4:00 PM
Wed, May 18
5:00 PM
Wed, May 18
6:00 PM
Wed, May 18
7:00 PM
Wed, May 18
8:00 PM
Wed, May 18
9:00 PM
Wed, May 18
10:00 PM
Wed, May 18
11:00 PM
Thu, May 19
12:00 AM
Thu, May 19
1:00 AM
Thu, May 19
2:00 AM
Thu, May 19
3:00 AM
Thu, May 19
4:00 AM
Thu, May 19
5:00 AM
Thu, May 19
6:00 AM
Thu, May 19
7:00 AM
Thu, May 19
8:00 AM
Thu, May 19
9:00 AM
Thu, May 19
10:00 AM
Thu, May 19
11:00 AM
Thu, May 19
12:00 PM
Thu, May 19
1:00 PM
Thu, May 19
2:00 PM
Thu, May 19
3:00 PM
Thu, May 19
4:00 PM
Thu, May 19
5:00 PM
Thu, May 19
6:00 PM
Thu, May 19
7:00 PM
Thu, May 19
8:00 PM
Thu, May 19
9:00 PM
Thu, May 19
10:00 PM
Thu, May 19
11:00 PM
Condition
Clouds

Rain

Clouds

Clouds

Clouds

Rain

Rain

Clouds

Clouds

Clouds

Rain

Clouds

Clouds

Clouds

Clouds

Clouds

Clouds

Clouds

Clouds

Clouds

Clouds

Clouds

Clouds

Clouds

Clouds

Clouds

Clouds

Clouds

Clouds

Clouds

Clouds

Clouds

Clear

Clear

Clouds

Clouds

Clouds

Clouds

Clouds

Rain

Clouds

Rain

Rain

Clouds

Clear

Clear

Clear

Clear
Temperature 68°F69°F69°F67°F66°F62°F61°F62°F64°F65°F68°F66°F69°F75°F77°F78°F79°F78°F77°F74°F70°F69°F67°F67°F67°F67°F66°F67°F67°F65°F65°F68°F71°F75°F77°F80°F82°F83°F84°F84°F84°F84°F82°F79°F76°F76°F76°F75°F
Feels Like 69°F69°F69°F67°F66°F62°F61°F62°F64°F66°F68°F66°F69°F75°F78°F79°F79°F79°F78°F75°F71°F69°F68°F68°F67°F67°F67°F67°F67°F66°F66°F68°F72°F75°F78°F80°F85°F87°F88°F88°F89°F90°F86°F80°F77°F77°F77°F76°F
Cloudiness 98%98%98%99%99%100%100%100%100%100%100%100%99%99%100%100%100%100%100%100%80%41%27%22%23%25%39%51%55%47%42%36%5%7%16%16%17%19%30%42%44%34%43%37%5%3%2%1%
Visibility 6 mi6 mi6 mi6 mi6 mi2 mi6 mi6 mi6 mi6 mi6 mi6 mi6 mi6 mi6 mi6 mi6 mi6 mi6 mi6 mi6 mi6 mi6 mi6 mi6 mi6 mi6 mi6 mi6 mi6 mi6 mi6 mi6 mi6 mi6 mi6 mi6 mi6 mi6 mi6 mi6 mi6 mi6 mi6 mi6 mi6 mi6 mi6 mi
Precipitation 0%20%1%22%47%88%100%80%20%25%33%29%29%28%0%0%0%0%0%0%1%1%2%2%6%1%3%3%2%2%2%1%0%0%0%0%0%0%40%36%43%71%73%82%0%0%0%0%
Humidity 74%72%73%73%74%90%94%92%89%86%82%88%81%69%65%64%63%68%73%80%85%88%89%89%89%88%88%87%88%91%92%89%82%77%73%69%64%61%62%65%65%68%71%75%76%73%71%71%
Dew Point 60°F60°F60°F58°F58°F59°F59°F59°F60°F61°F62°F62°F63°F64°F64°F65°F65°F67°F68°F68°F66°F65°F64°F63°F63°F63°F63°F63°F63°F63°F62°F64°F66°F67°F68°F68°F69°F68°F70°F70°F71°F72°F71°F70°F68°F67°F66°F65°F
Pressure 29.88"29.88"29.88"29.88"29.88"29.85"29.85"29.85"29.83"29.83"29.83"29.83"29.83"29.8"29.8"29.77"29.77"29.74"29.74"29.74"29.77"29.77"29.77"29.77"29.77"29.74"29.74"29.74"29.74"29.77"29.74"29.74"29.74"29.74"29.74"29.71"29.71"29.68"29.65"29.62"29.59"29.56"29.56"29.56"29.56"29.56"29.56"29.56"
Wind Speed 8.4 mph8.8 mph10.8 mph5.9 mph4 mph12.9 mph15.2 mph14.7 mph12.6 mph11.7 mph14.2 mph8.6 mph7.8 mph7.3 mph7.9 mph8.1 mph7.2 mph6 mph6 mph4.9 mph4.6 mph3.7 mph2.7 mph2.4 mph1.8 mph1.6 mph2 mph3.4 mph5.1 mph4.5 mph3.1 mph3.3 mph4.4 mph5.4 mph6.6 mph8.9 mph10.6 mph10.5 mph11.4 mph13.5 mph13.2 mph13.2 mph16.1 mph17.2 mph17.5 mph18 mph17.8 mph16.8 mph
Wind
Direction
162°
SSE
166°
SSE
158°
SSE
185°
S
181°
S
188°
S
175°
S
182°
S
184°
S
192°
SSW
212°
SSW
213°
SSW
229°
SW
245°
WSW
252°
WSW
261°
W
248°
WSW
245°
WSW
248°
WSW
285°
WNW
307°
NW
313°
NW
328°
NNW
341°
NNW
341°
NNW
315°
NW
272°
W
288°
WNW
307°
NW
296°
WNW
270°
W
224°
SW
201°
SSW
197°
SSW
198°
SSW
196°
SSW
193°
SSW
195°
SSW
196°
SSW
195°
SSW
191°
S
187°
S
183°
S
185°
S
190°
S
192°
SSW
192°
SSW
196°
SSW

Daily Forecast

Date High Low Precip. Humidity
Today
May 18

Rain
79 °F
61 °F
100%
81%
Thursday
May 19

Rain
84 °F
65 °F
82%
64%
Friday
May 20

Rain
84 °F
71 °F
38%
69%
Saturday
May 21

Rain
82 °F
62 °F
100%
68%
Sunday
May 22

Rain
62 °F
50 °F
100%
62%
Monday
May 23

Clear
66 °F
48 °F
0%
53%
Tuesday
May 24

Rain
65 °F
54 °F
100%
82%
Wednesday
May 25

Rain
73 °F
59 °F
100%
91%
Thursday
May 26

Clear
79 °F
55 °F
0%
56%
Friday
May 27

Clear
83 °F
61 °F
0%
53%
Saturday
May 28

Rain
87 °F
65 °F
25%
55%
Sunday
May 29

Rain
86 °F
69 °F
78%
57%
Monday
May 30

Rain
74 °F
59 °F
100%
88%
Tuesday
May 31

Clear
73 °F
52 °F
0%
52%
Wednesday
Jun 1

Clouds
76 °F
54 °F
0%
52%
Thursday
Jun 2

Clear
83 °F
60 °F
0%
59%

Temperature 8-14 Day Outlook



Precipitation 8-14 Day Outlook




Quick Links
Carlyle Lake News
Carlyle Lake Photos
Carlyle Lake Videos




About Us
Contact Us
Site Map
Search Site
Advertise With Us
   
Carlyle.USLakes.info
THE CARLYLE LAKE WEBSITE

Copyright 2022, Lakes Online
Privacy    |    Legal